User: anonymous   Login
Location: Unspecified
(0.0000°N, 0.0000°E)
Time: 08:23:53
(UTC+00:00)
Language:

DEIMOS 1 - Orbit

View from above orbital plane
View from above orbital plane
View from above satellite
View from above satellite

Ground track
Ground track

The orbit data is extracted from the following two-line orbital elements,

1 35681U 09041A   19052.00322996  .00000076  00000-0  19780-4 0  9997
2 35681  97.8798 297.6989 0002622 126.3227 233.8229 14.71772324513420
Epoch (UTC): 21 February 2019 00:04:39
Eccentricity: 0.0002622
inclination: 97.8798°
perigee height: 653 km
apogee height: 657 km
right ascension of ascending node: 297.6989°
argument of perigee: 126.3227°
revolutions per day: 14.71772324
mean anomaly at epoch: 233.8229°
orbit number at epoch: 51342

The dashed part of the orbit path shows where the satellite is in the earth's shadow,  

DLR